Location: Poughquag
(41.6090°N, 73.6820°W)
Time: 14:50:17
(UTC-04:00)

Vanguard 2 - Pass Details

Date: 06 June 2020
Orbit: 552 x 2938 km, 32.9° (Epoch: 06 July)

Event Time Altitude Azimuth Distance (km) Brightness Sun altitude
Rises 21:48:39 0° 272° (W) 5,909 12.8 -12.7°
Reaches altitude 10° 21:53:23 10° 266° (W) 4,521 12.0 -13.3°
Maximum altitude 22:03:42 39° 204° (SSW) 2,022 9.4 -14.5°
Enters shadow 22:08:15 20° 149° (SSE) 2,356 9.4 -15.1°
